�������l�o���
Date,Time,MP-1(��Sv/h),MP-2(��Sv/h),MP-3(��Sv/h),MP-4(��Sv/h),MP-5(��Sv/h),MP-6(��Sv/h),MP-7(��Sv/h),MP-8(��Sv/h),����,����(m/s),���J
2021/05/13,00:00,0.649,0.960,0.598,1.179,0.836,0.375,0.657,0.614,��쐼,7.7,��
2021/05/13,00:10,0.649,0.959,0.598,1.179,0.836,0.376,0.657,0.614,��,7.7,��
2021/05/13,00:20,0.648,0.963,0.598,1.179,0.835,0.375,0.658,0.614,��,7.8,��
2021/05/13,00:30,0.649,0.959,0.599,1.179,0.838,0.377,0.658,0.616,��,8.3,��
2021/05/13,00:40,0.649,0.959,0.599,1.182,0.837,0.376,0.659,0.614,��,8.9,��
2021/05/13,00:50,0.650,0.958,0.597,1.178,0.838,0.376,0.659,0.616,��,9.8,��
2021/05/13,01:00,0.648,0.961,0.597,1.179,0.837,0.376,0.658,0.615,��,9.5,��
2021/05/13,01:10,0.649,0.959,0.599,1.178,0.836,0.375,0.661,0.614,��,8.9,��
2021/05/13,01:20,0.649,0.963,0.598,1.179,0.836,0.376,0.658,0.615,��,7.8,��
2021/05/13,01:30,0.649,0.960,0.597,1.179,0.836,0.374,0.661,0.615,��,7.8,��
2021/05/13,01:40,0.649,0.958,0.598,1.178,0.837,0.377,0.660,0.616,��,8.3,��
2021/05/13,01:50,0.648,0.962,0.598,1.178,0.837,0.375,0.660,0.615,��,8.1,��
2021/05/13,02:00,0.649,0.960,0.596,1.179,0.838,0.376,0.659,0.617,��,6.9,��
2021/05/13,02:10,0.649,0.960,0.600,1.178,0.835,0.375,0.660,0.616,��,6.2,��
2021/05/13,02:20,0.650,0.959,0.598,1.179,0.836,0.375,0.659,0.615,��,6.9,��
2021/05/13,02:30,0.649,0.960,0.598,1.178,0.836,0.377,0.659,0.615,��,7.6,��
2021/05/13,02:40,0.648,0.960,0.597,1.180,0.836,0.376,0.658,0.615,��,7.4,��
2021/05/13,02:50,0.647,0.958,0.598,1.179,0.836,0.376,0.658,0.615,��,7.3,��
2021/05/13,03:00,0.648,0.960,0.598,1.180,0.836,0.376,0.658,0.616,��,7.9,��
2021/05/13,03:10,0.648,0.960,0.598,1.181,0.836,0.377,0.659,0.613,��,6.7,��
2021/05/13,03:20,0.648,0.961,0.599,1.177,0.836,0.376,0.659,0.614,��,7.7,��
2021/05/13,03:30,0.650,0.959,0.597,1.178,0.837,0.375,0.659,0.616,��,8.6,��
2021/05/13,03:40,0.649,0.959,0.598,1.181,0.835,0.375,0.660,0.615,��,8.0,��
2021/05/13,03:50,0.647,0.957,0.598,1.181,0.835,0.376,0.660,0.614,��,7.4,��
2021/05/13,04:00,0.649,0.959,0.598,1.179,0.835,0.376,0.658,0.613,��,6.6,��
2021/05/13,04:10,0.649,0.959,0.597,1.179,0.835,0.376,0.660,0.615,��,6.1,��
2021/05/13,04:20,0.649,0.958,0.597,1.181,0.836,0.376,0.660,0.614,��,6.6,��
2021/05/13,04:30,0.649,0.958,0.597,1.178,0.837,0.375,0.659,0.614,��,6.7,��
2021/05/13,04:40,0.649,0.959,0.598,1.181,0.836,0.374,0.658,0.613,��,6.7,��
2021/05/13,04:50,0.651,0.959,0.598,1.177,0.835,0.374,0.660,0.615,��,7.6,��
2021/05/13,05:00,0.648,0.961,0.597,1.179,0.835,0.375,0.659,0.614,��,7.5,��
2021/05/13,05:10,0.650,0.958,0.599,1.180,0.837,0.376,0.659,0.614,��,7.7,��
2021/05/13,05:20,0.649,0.958,0.598,1.180,0.835,0.375,0.658,0.614,��,6.9,��
2021/05/13,05:30,0.650,0.960,0.598,1.180,0.836,0.376,0.660,0.617,��,5.9,��
2021/05/13,05:40,0.649,0.959,0.599,1.180,0.836,0.376,0.659,0.614,��,5.5,��
2021/05/13,05:50,0.647,0.960,0.599,1.181,0.837,0.375,0.662,0.615,��,5.5,��
2021/05/13,06:00,0.649,0.958,0.598,1.178,0.836,0.376,0.661,0.616,��,4.3,��
2021/05/13,06:10,0.648,0.959,0.599,1.176,0.837,0.377,0.659,0.616,��,4.6,��
2021/05/13,06:20,0.650,0.961,0.599,1.179,0.835,0.375,0.661,0.615,��,4.3,��
2021/05/13,06:30,0.649,0.960,0.600,1.180,0.837,0.376,0.660,0.616,��,4.0,��
2021/05/13,06:40,0.651,0.961,0.599,1.179,0.837,0.376,0.659,0.617,��,4.0,��
2021/05/13,06:50,0.651,0.960,0.601,1.179,0.838,0.376,0.657,0.616,��,5.2,��
2021/05/13,07:00,0.651,0.959,0.599,1.180,0.837,0.373,0.659,0.617,��,5.5,��
2021/05/13,07:10,0.650,0.961,0.600,1.177,0.838,0.375,0.659,0.615,��,6.5,��
2021/05/13,07:20,0.651,0.961,0.601,1.177,0.837,0.372,0.660,0.615,��,7.1,��
2021/05/13,07:30,0.653,0.957,0.598,1.177,0.834,0.374,0.659,0.615,��,9.2,��
2021/05/13,07:40,0.652,0.958,0.599,1.180,0.836,0.374,0.659,0.615,��,8.0,��
2021/05/13,07:50,0.650,0.958,0.599,1.181,0.835,0.374,0.658,0.615,��,8.3,��
2021/05/13,08:00,0.648,0.958,0.600,1.182,0.834,0.373,0.659,0.614,��,7.8,��
2021/05/13,08:10,0.648,0.957,0.597,1.180,0.835,0.375,0.658,0.614,��,7.7,��
2021/05/13,08:20,0.648,0.956,0.599,1.178,0.833,0.375,0.657,0.612,��,8.2,��
2021/05/13,08:30,0.647,0.956,0.597,1.181,0.834,0.373,0.656,0.615,��,5.2,��
2021/05/13,08:40,0.649,0.956,0.597,1.179,0.835,0.375,0.660,0.612,��,4.6,��
2021/05/13,08:50,0.648,0.954,0.597,1.180,0.834,0.374,0.658,0.614,��쓌,6.0,��
2021/05/13,09:00,0.650,0.954,0.597,1.182,0.834,0.375,0.659,0.613,��쓌,5.6,��
2021/05/13,09:10,0.648,0.955,0.598,1.180,0.835,0.375,0.658,0.613,��,6.6,��
2021/05/13,09:20,0.648,0.953,0.598,1.177,0.832,0.374,0.659,0.613,��,5.5,�L
2021/05/13,09:30,0.650,0.953,0.597,1.181,0.834,0.374,0.657,0.613,��,6.2,��
2021/05/13,09:40,0.649,0.954,0.598,1.178,0.836,0.375,0.658,0.614,��,4.4,�L
2021/05/13,09:50,0.650,0.954,0.597,1.180,0.834,0.375,0.659,0.614,��쐼,5.3,�L
2021/05/13,10:00,0.648,0.954,0.596,1.181,0.831,0.373,0.658,0.611,��,5.7,�L
2021/05/13,10:10,0.646,0.952,0.597,1.178,0.835,0.375,0.657,0.612,��,5.4,�L
2021/05/13,10:20,0.646,0.952,0.596,1.180,0.831,0.374,0.658,0.611,��,5.6,�L
2021/05/13,10:30,0.644,0.951,0.595,1.179,0.830,0.374,0.657,0.612,��,6.1,�L
2021/05/13,10:40,0.644,0.948,0.594,1.179,0.831,0.374,0.657,0.611,��,6.8,�L
2021/05/13,10:50,0.644,0.951,0.596,1.179,0.830,0.374,0.657,0.612,��,7.4,�L
2021/05/13,11:00,0.647,0.951,0.595,1.177,0.830,0.374,0.658,0.613,��,7.0,�L
2021/05/13,11:10,0.646,0.953,0.598,1.178,0.832,0.374,0.659,0.613,��,7.1,��
2021/05/13,11:20,0.647,0.953,0.599,1.178,0.833,0.375,0.657,0.614,��,4.3,��
2021/05/13,11:30,0.645,0.953,0.597,1.180,0.834,0.374,0.656,0.614,��,6.9,��
2021/05/13,11:40,0.648,0.955,0.597,1.179,0.834,0.374,0.658,0.612,��,6.4,��
2021/05/13,11:50,0.647,0.954,0.597,1.178,0.831,0.375,0.659,0.610,��,6.3,��
2021/05/13,12:00,0.647,0.958,0.597,1.174,0.831,0.374,0.659,0.612,��,6.9,��
2021/05/13,12:10,0.648,0.957,0.597,1.175,0.833,0.375,0.658,0.612,��,7.3,��
2021/05/13,12:20,0.647,0.955,0.597,1.176,0.833,0.375,0.657,0.612,��,6.7,��
2021/05/13,12:30,0.647,0.956,0.596,1.175,0.833,0.374,0.657,0.612,��쐼,6.4,��
2021/05/13,12:40,0.647,0.957,0.597,1.177,0.833,0.374,0.658,0.612,��,7.1,��
2021/05/13,12:50,0.647,0.957,0.595,1.179,0.833,0.375,0.658,0.611,��쐼,7.3,��
2021/05/13,13:00,0.648,0.956,0.597,1.179,0.832,0.373,0.658,0.613,��,6.7,��
2021/05/13,13:10,0.649,0.956,0.596,1.180,0.832,0.374,0.658,0.610,��,8.1,��
2021/05/13,13:20,0.649,0.952,0.597,1.182,0.833,0.373,0.658,0.612,��쐼,7.3,��
2021/05/13,13:30,0.648,0.955,0.597,1.180,0.834,0.375,0.659,0.613,��,7.9,��
2021/05/13,13:40,0.650,0.956,0.597,1.181,0.832,0.373,0.658,0.613,��,9.2,��
2021/05/13,13:50,0.649,0.955,0.596,1.180,0.833,0.375,0.659,0.612,��,8.0,��
2021/05/13,14:00,0.650,0.956,0.597,1.181,0.833,0.374,0.657,0.612,��,8.6,��
2021/05/13,14:10,0.649,0.955,0.598,1.179,0.834,0.376,0.659,0.612,��,6.2,��
2021/05/13,14:20,0.651,0.956,0.599,1.178,0.832,0.375,0.657,0.613,��,9.2,��
2021/05/13,14:30,0.649,0.956,0.597,1.178,0.835,0.375,0.659,0.613,��쓌,9.8,��
2021/05/13,14:40,0.650,0.957,0.598,1.178,0.831,0.374,0.659,0.612,��쓌,9.4,��
2021/05/13,14:50,0.648,0.959,0.598,1.177,0.836,0.373,0.659,0.614,��쓌,8.0,��
2021/05/13,15:00,0.650,0.956,0.596,1.179,0.835,0.375,0.659,0.614,��쓌,8.3,��
2021/05/13,15:10,0.648,0.957,0.597,1.178,0.836,0.376,0.659,0.612,��,8.6,��
2021/05/13,15:20,0.650,0.959,0.599,1.177,0.835,0.376,0.660,0.613,��,8.3,��
2021/05/13,15:30,0.651,0.958,0.598,1.178,0.836,0.375,0.659,0.613,��,8.4,��
2021/05/13,15:40,0.651,0.957,0.599,1.176,0.835,0.374,0.659,0.611,��쐼,5.8,��
2021/05/13,15:50,0.650,0.960,0.598,1.176,0.834,0.377,0.660,0.613,��,8.3,��
2021/05/13,16:00,0.650,0.960,0.600,1.180,0.833,0.377,0.659,0.613,��,7.6,��
2021/05/13,16:10,0.650,0.958,0.598,1.180,0.834,0.375,0.658,0.613,��,6.6,��
2021/05/13,16:20,0.650,0.957,0.596,1.179,0.833,0.376,0.658,0.613,��,6.3,��
2021/05/13,16:30,0.650,0.962,0.599,1.182,0.833,0.375,0.660,0.613,��,5.7,��
2021/05/13,16:40,0.648,0.959,0.599,1.179,0.834,0.375,0.659,0.612,��쐼,4.3,��
2021/05/13,16:50,0.651,0.958,0.599,1.180,0.834,0.375,0.659,0.613,��,7.0,��
2021/05/13,17:00,0.649,0.959,0.597,1.182,0.834,0.375,0.659,0.614,��쐼,4.5,��
2021/05/13,17:10,0.648,0.958,0.599,1.183,0.834,0.374,0.658,0.614,��,4.0,��
2021/05/13,17:20,0.649,0.959,0.598,1.181,0.835,0.374,0.660,0.613,��쓌,4.9,��
2021/05/13,17:30,0.648,0.960,0.599,1.181,0.833,0.375,0.656,0.613,��쓌,5.7,��
2021/05/13,17:40,0.649,0.960,0.600,1.179,0.835,0.373,0.658,0.614,��쓌,6.1,��
2021/05/13,17:50,0.648,0.961,0.599,1.180,0.836,0.376,0.658,0.614,��쓌,5.7,��
2021/05/13,18:00,0.650,0.960,0.598,1.181,0.836,0.374,0.658,0.614,��,6.1,��
2021/05/13,18:10,0.649,0.958,0.601,1.180,0.834,0.375,0.659,0.614,��,6.1,��
2021/05/13,18:20,0.649,0.960,0.600,1.183,0.834,0.375,0.659,0.614,��,6.7,��
2021/05/13,18:30,0.649,0.961,0.599,1.182,0.833,0.375,0.659,0.613,��,6.6,��
2021/05/13,18:40,0.649,0.959,0.600,1.183,0.835,0.375,0.658,0.613,��,6.2,��
2021/05/13,18:50,0.650,0.959,0.600,1.181,0.834,0.376,0.658,0.613,��,5.8,��
2021/05/13,19:00,0.650,0.960,0.599,1.182,0.832,0.375,0.658,0.615,��,7.1,��
2021/05/13,19:10,0.651,0.959,0.601,1.182,0.834,0.376,0.658,0.613,��,7.6,��
2021/05/13,19:20,0.650,0.961,0.601,1.184,0.833,0.375,0.657,0.614,��,6.4,��
2021/05/13,19:30,0.650,0.961,0.601,1.183,0.835,0.376,0.658,0.615,��쓌,7.1,��
2021/05/13,19:40,0.649,0.961,0.598,1.183,0.835,0.376,0.658,0.616,��,7.5,��
2021/05/13,19:50,0.649,0.961,0.602,1.181,0.835,0.375,0.658,0.615,��,7.9,��
2021/05/13,20:00,0.648,0.959,0.601,1.182,0.834,0.376,0.659,0.616,��,6.2,��
2021/05/13,20:10,0.649,0.960,0.600,1.182,0.835,0.375,0.659,0.615,��,5.9,��
2021/05/13,20:20,0.650,0.959,0.598,1.181,0.835,0.374,0.658,0.615,��,6.5,��
2021/05/13,20:30,0.648,0.962,0.598,1.182,0.835,0.375,0.658,0.615,��,6.1,��
2021/05/13,20:40,0.649,0.960,0.600,1.181,0.834,0.375,0.659,0.614,��,5.8,��
2021/05/13,20:50,0.649,0.959,0.600,1.182,0.837,0.375,0.660,0.617,��,6.5,��
2021/05/13,21:00,0.648,0.961,0.600,1.180,0.833,0.376,0.661,0.616,��,6.6,��
2021/05/13,21:10,0.648,0.961,0.600,1.182,0.835,0.376,0.659,0.616,��,4.8,��
2021/05/13,21:20,0.651,0.963,0.601,1.182,0.833,0.376,0.661,0.616,��,5.0,��
2021/05/13,21:30,0.650,0.963,0.599,1.180,0.835,0.376,0.660,0.616,��,5.2,��
2021/05/13,21:40,0.649,0.963,0.601,1.182,0.836,0.375,0.661,0.615,��,5.4,��
2021/05/13,21:50,0.651,0.963,0.600,1.181,0.835,0.377,0.660,0.616,��,6.1,��
2021/05/13,22:00,0.650,0.964,0.600,1.182,0.835,0.374,0.660,0.615,��쐼,5.8,��
2021/05/13,22:10,0.650,0.965,0.601,1.182,0.834,0.374,0.659,0.615,��,6.6,��
2021/05/13,22:20,0.650,0.964,0.600,1.181,0.835,0.375,0.658,0.616,��쐼,5.8,��
2021/05/13,22:30,0.651,0.964,0.599,1.182,0.834,0.374,0.658,0.617,��쐼,5.7,��
2021/05/13,22:40,0.650,0.963,0.599,1.183,0.834,0.376,0.659,0.617,��쐼,4.4,��
2021/05/13,22:50,0.649,0.963,0.600,1.182,0.836,0.377,0.660,0.616,��쐼,4.5,��
2021/05/13,23:00,0.652,0.961,0.601,1.184,0.837,0.376,0.659,0.615,��쐼,4.7,��
2021/05/13,23:10,0.650,0.965,0.599,1.182,0.834,0.375,0.661,0.616,��쐼,4.4,��
2021/05/13,23:20,0.650,0.964,0.601,1.181,0.837,0.376,0.659,0.616,��쐼,4.6,��
2021/05/13,23:30,0.649,0.963,0.601,1.179,0.835,0.375,0.660,0.614,��쐼,4.6,��
2021/05/13,23:40,0.650,0.964,0.600,1.182,0.836,0.376,0.659,0.615,��쐼,4.4,��
2021/05/13,23:50,0.648,0.962,0.600,1.180,0.834,0.374,0.659,0.614,��,5.1,��
